Date String (YYYY-MM-DD hh:mm:ss) UTC,Instrument flags,Ambient pressure (hPa),Sample flow (lpm),Bypass flow (lpm),Sample temperature (°C),Ambient temperature (°C),ASC tube jacket temperature (°C),LED temperature (°C),Box temperature (°C),Sample RH (%),Mass concentration (μg/m³),Mass concentration (μg/m³)
DateTimeUTC,F1_M11,P_M11,Q1_M11,Q2_M11,T1_M11,T2_M11,T3_M11,T4_M11,T5_M11,U1_M11,X2_M11,X0_M11
2021-08-12 04:00:00,FlowAlarm;OPCInstrumentWarning,0828.1,4.99,0.00,29.2,28.5,00.0,38.3,31.3,16.8,0028.16,0040.22
2021-08-12 04:01:00,FlowAlarm;OPCInstrumentWarning,0828.0,5.02,0.00,29.3,28.6,00.0,38.3,31.4,16.8,0028.18,0040.49
2021-08-12 04:02:00,FlowAlarm;OPCInstrumentWarning,0828.0,5.00,0.00,29.4,28.6,00.0,38.4,31.4,16.8,0028.21,0041.00
2021-08-12 04:03:00,FlowAlarm;OPCInstrumentWarning,0828.0,5.00,0.00,29.3,27.1,00.0,38.4,31.0,16.8,0028.31,0041.36
2021-08-12 04:04:00,FlowAlarm;OPCInstrumentWarning,0828.0,4.98,0.00,29.1,25.5,00.0,38.3,30.6,16.9,0028.39,0041.21
2021-08-12 04:05:00,FlowAlarm;OPCInstrumentWarning,0828.0,5.00,0.00,29.0,25.5,00.0,38.3,30.5,17.0,0028.36,0041.89
2021-08-12 04:06:00,FlowAlarm;OPCInstrumentWarning,0828.0,5.01,0.00,28.9,25.9,00.0,38.2,30.6,17.1,0028.35,0042.14
2021-08-12 04:07:00,FlowAlarm;OPCInstrumentWarning,0828.0,5.00,0.00,28.9,26.4,00.0,38.2,30.7,17.2,0028.44,0042.76
2021-08-12 04:08:00,FlowAlarm;OPCInstrumentWarning,0828.0,5.00,0.00,28.9,26.8,00.0,38.2,30.7,17.2,0028.48,0043.60
2021-08-12 04:09:00,FlowAlarm;OPCInstrumentWarning,0828.1,4.99,0.00,28.9,27.2,00.0,38.2,30.8,17.2,0028.51,0044.43
2021-08-12 04:10:00,FlowAlarm;OPCInstrumentWarning,0828.1,5.01,0.00,28.9,27.5,00.0,38.2,30.9,17.2,0028.53,0044.46
2021-08-12 04:11:00,FlowAlarm;OPCInstrumentWarning,0828.1,4.98,0.00,29.0,27.8,00.0,38.2,31.0,17.2,0028.53,0044.61
2021-08-12 04:12:00,FlowAlarm;OPCInstrumentWarning,0828.2,5.00,0.00,29.0,28.0,00.0,38.2,31.0,17.1,0028.58,0044.33
2021-08-12 04:13:00,FlowAlarm;OPCInstrumentWarning,0828.1,5.00,0.00,29.1,28.1,00.0,38.2,31.1,17.0,0028.60,0043.17
2021-08-12 04:14:00,FlowAlarm;OPCInstrumentWarning,0828.1,5.00,0.00,29.1,28.3,00.0,38.2,31.1,16.8,0028.57,0042.48
2021-08-12 04:15:00,FlowAlarm;OPCInstrumentWarning,0828.2,4.98,0.00,29.2,28.4,00.0,38.3,31.2,16.8,0028.57,0042.17
2021-08-12 04:16:00,FlowAlarm;OPCInstrumentWarning,0828.1,5.00,0.00,29.2,28.5,00.0,38.3,31.3,16.7,0028.69,0041.49
2021-08-12 04:17:00,FlowAlarm;OPCInstrumentWarning,0828.1,5.00,0.00,29.3,28.6,00.0,38.3,31.3,16.7,0028.80,0042.08
2021-08-12 04:18:00,FlowAlarm;OPCInstrumentWarning,0828.1,5.01,0.00,29.3,28.7,00.0,38.3,31.3,16.7,0028.91,0042.42
2021-08-12 04:19:00,FlowAlarm;OPCInstrumentWarning,0828.1,4.99,0.00,29.4,28.7,00.0,38.4,31.4,16.6,0028.95,0042.06
2021-08-12 04:20:00,FlowAlarm;OPCInstrumentWarning,0828.3,5.00,0.00,29.4,28.3,00.0,38.4,31.3,16.5,0029.03,0040.77
2021-08-12 04:21:00,FlowAlarm;OPCInstrumentWarning,0828.1,4.99,0.00,29.3,26.5,00.0,38.4,30.9,16.6,0029.12,0040.87
2021-08-12 04:22:00,FlowAlarm;OPCInstrumentWarning,0828.2,5.00,0.00,29.1,25.5,00.0,38.4,30.6,16.6,0029.22,0041.15
2021-08-12 04:23:00,FlowAlarm;OPCInstrumentWarning,0828.2,5.02,0.00,29.0,25.7,00.0,38.3,30.6,16.7,0029.30,0041.74
2021-08-12 04:24:00,FlowAlarm;OPCInstrumentWarning,0828.2,5.00,0.00,28.9,26.2,00.0,38.3,30.7,16.9,0029.39,0043.04
2021-08-12 04:25:00,FlowAlarm;OPCInstrumentWarning,0828.1,5.00,0.00,28.9,26.6,00.0,38.2,30.8,16.9,0029.45,0043.96
2021-08-12 04:26:00,FlowAlarm;OPCInstrumentWarning,0828.2,5.00,0.00,28.9,27.0,00.0,38.2,30.9,16.8,0029.44,0043.90
2021-08-12 04:27:00,FlowAlarm;OPCInstrumentWarning,0828.2,4.99,0.00,29.0,27.4,00.0,38.2,30.9,16.9,0029.44,0043.63
2021-08-12 04:28:00,FlowAlarm;OPCInstrumentWarning,0828.1,4.99,0.00,29.0,27.6,00.0,38.2,31.0,16.8,0029.42,0042.82
2021-08-12 04:29:00,FlowAlarm;OPCInstrumentWarning,0828.3,5.01,0.00,29.0,27.9,00.0,38.2,31.0,16.6,0029.34,0042.90
2021-08-12 04:30:00,FlowAlarm;OPCInstrumentWarning,0828.2,5.00,0.00,29.1,28.0,00.0,38.2,31.1,16.6,0029.38,0043.23
2021-08-12 04:31:00,FlowAlarm;OPCInstrumentWarning,0828.2,4.99,0.00,29.1,28.2,00.0,38.3,31.1,16.7,0029.42,0043.38
2021-08-12 04:32:00,FlowAlarm;OPCInstrumentWarning,0828.3,5.01,0.00,29.2,28.3,00.0,38.3,31.2,16.7,0029.45,0043.84
2021-08-12 04:33:00,FlowAlarm;OPCInstrumentWarning,0828.2,5.00,0.00,29.2,28.4,00.0,38.3,31.2,16.7,0029.42,0044.49
2021-08-12 04:34:00,FlowAlarm;OPCInstrumentWarning,0828.2,5.00,0.00,29.3,28.5,00.0,38.3,31.3,16.6,0029.38,0044.08
2021-08-12 04:35:00,FlowAlarm;OPCInstrumentWarning,0828.2,5.01,0.00,29.3,28.6,00.0,38.3,31.4,16.5,0029.39,0043.30
2021-08-12 04:36:00,FlowAlarm;OPCInstrumentWarning,0828.3,4.99,0.00,29.4,28.7,00.0,38.4,31.4,16.4,0029.42,0042.28
2021-08-12 04:37:00,FlowAlarm;OPCInstrumentWarning,0828.3,5.00,0.00,29.4,28.8,00.0,38.4,31.4,16.2,0029.47,0043.02
2021-08-12 04:38:00,FlowAlarm;OPCInstrumentWarning,0828.3,5.00,0.00,29.5,28.8,00.0,38.5,31.5,16.3,0029.51,0043.96
2021-08-12 04:39:00,FlowAlarm;OPCInstrumentWarning,0828.3,5.01,0.00,29.5,27.8,00.0,38.5,31.2,16.3,0029.52,0045.17
2021-08-12 04:40:00,FlowAlarm;OPCInstrumentWarning,0828.2,5.00,0.00,29.3,25.8,00.0,38.4,30.7,16.3,0029.60,0046.37
2021-08-12 04:41:00,FlowAlarm;OPCInstrumentWarning,0828.3,5.00,0.00,29.1,25.4,00.0,38.4,30.5,16.4,0029.66,0045.61
2021-08-12 04:42:00,FlowAlarm;OPCInstrumentWarning,0828.3,5.01,0.00,29.0,25.7,00.0,38.4,30.6,16.5,0029.71,0045.45
2021-08-12 04:43:00,FlowAlarm;OPCInstrumentWarning,0828.2,4.99,0.00,29.0,26.2,00.0,38.3,30.7,16.6,0029.75,0045.04
2021-08-12 04:44:00,FlowAlarm;OPCInstrumentWarning,0828.2,5.00,0.00,29.0,26.7,00.0,38.3,30.8,16.6,0029.78,0044.68
2021-08-12 04:45:00,FlowAlarm;OPCInstrumentWarning,0828.3,5.01,0.00,29.0,27.1,00.0,38.3,30.9,16.5,0029.77,0045.51
2021-08-12 04:46:00,FlowAlarm;OPCInstrumentWarning,0828.2,4.99,0.00,29.0,27.4,00.0,38.3,31.0,16.5,0029.70,0047.32
2021-08-12 04:47:00,FlowAlarm;OPCInstrumentWarning,0828.3,5.02,0.00,29.0,27.7,00.0,38.3,31.0,16.5,0029.61,0047.39
2021-08-12 04:48:00,FlowAlarm;OPCInstrumentWarning,0828.3,4.98,0.00,29.1,27.9,00.0,38.3,31.1,16.4,0029.55,0047.73
2021-08-12 04:49:00,FlowAlarm;OPCInstrumentWarning,0828.2,5.02,0.00,29.1,28.1,00.0,38.3,31.1,16.5,0029.45,0047.05
2021-08-12 04:50:00,FlowAlarm;OPCInstrumentWarning,0828.2,4.98,0.00,29.2,28.2,00.0,38.3,31.2,16.3,0029.36,0045.98
2021-08-12 04:51:00,FlowAlarm;OPCInstrumentWarning,0828.2,5.01,0.00,29.2,28.4,00.0,38.3,31.3,16.3,0029.28,0044.50
2021-08-12 04:52:00,FlowAlarm;OPCInstrumentWarning,0828.2,4.99,0.00,29.3,28.5,00.0,38.3,31.3,16.3,0029.24,0044.57
2021-08-12 04:53:00,FlowAlarm;OPCInstrumentWarning,0828.3,5.00,0.00,29.3,28.6,00.0,38.4,31.3,16.4,0029.14,0045.02
2021-08-12 04:54:00,FlowAlarm;OPCInstrumentWarning,0828.2,5.02,0.00,29.4,28.7,00.0,38.4,31.4,16.4,0029.07,0045.66
2021-08-12 04:55:00,FlowAlarm;OPCInstrumentWarning,0828.2,5.00,0.00,29.4,28.7,00.0,38.4,31.4,16.3,0029.01,0045.15
2021-08-12 04:56:00,FlowAlarm;OPCInstrumentWarning,0828.3,5.00,0.00,29.5,28.8,00.0,38.5,31.5,16.1,0028.99,0044.37
2021-08-12 04:57:00,FlowAlarm;OPCInstrumentWarning,0828.3,5.00,0.00,29.5,28.7,00.0,38.5,31.5,16.0,0029.02,0042.21
2021-08-12 04:58:00,FlowAlarm;OPCInstrumentWarning,0828.2,5.00,0.00,29.5,27.1,00.0,38.5,31.1,16.1,0029.04,0043.05
2021-08-12 04:59:00,FlowAlarm;OPCInstrumentWarning,0828.2,4.99,0.00,29.3,26.3,00.0,38.5,30.9,16.2,0029.07,0042.68
